Location: ??
(31.9467°N, 34.8903°E)
Time: 18:19:03
(UTC+00:00)

Cosmos 1340 - Pass Details

Date: 29 October 2020
Orbit: 501 x 504 km, 81.2° (Epoch: 29 November)

Event Time Altitude Azimuth Distance (km) Brightness Sun altitude
Rises 15:49:44 0° 352° (N) 2,608 6.3 -12.6°
Reaches altitude 10° 15:51:52 10° 352° (N) 1,720 5.3 -13.0°
Maximum altitude 15:55:38 89° 82° (E) 509 2.6 -13.8°
Drops below altitude 10° 15:59:23 10° 173° (S) 1,708 5.3 -14.6°
Sets 16:01:30 0° 173° (S) 2,588 6.3 -15.0°
